Location: Cork
(51.8990°N, 8.4960°W)
Time: 20:34:30
(UTC+00:00)

Iridium 66 - Visible Passes

Search period start: 24 November 2017 00:00
Search period end: 04 December 2017 00:00
Orbit: 776 x 779 km, 86.4° (Epoch: 24 November)

Date Brightness Start Highest point End Pass type
(mag) Time Alt. Az. Time Alt. Az. Time Alt. Az.
24 Nov 8.9 05:25:55 10° ESE 05:29:03 16° ENE 05:32:13 10° NE visible
24 Nov 6.0 07:03:50 10° S 07:09:03 86° W 07:14:20 10° N visible
24 Nov 6.6 17:27:55 10° N 17:32:43 35° ENE 17:37:29 10° SE visible
24 Nov 7.4 19:08:40 10° NNW 19:13:30 39° W 19:18:18 10° SSW visible
25 Nov 6.7 06:30:28 10° SSE 06:35:34 58° E 06:40:42 10° N visible
25 Nov 6.4 18:34:55 10° N 18:40:06 65° W 18:45:15 10° S visible
25 Nov 9.2 20:18:29 10° NW 20:19:46 11° WNW 20:21:02 10° W visible
26 Nov 7.7 05:57:30 10° SSE 06:02:11 35° E 06:06:54 10° NNE visible
26 Nov 5.9 18:01:19 10° N 18:06:34 78° E 18:11:48 10° S visible
26 Nov 8.7 19:43:12 10° NNW 19:46:40 18° WNW 19:50:07 10° WSW visible
27 Nov 8.5 05:25:02 10° SE 05:28:55 22° ENE 05:32:51 10° NNE visible
27 Nov 6.0 07:04:01 10° SSW 07:09:11 64° W 07:14:24 10° N visible
27 Nov 6.3 17:27:53 10° N 17:32:56 47° E 17:37:57 10° SSE visible
27 Nov 8.0 19:09:00 10° NNW 19:13:27 29° W 19:17:54 10° SW visible
28 Nov 9.0 04:53:21 10° E 04:55:47 13° ENE 04:58:14 10° NE visible
28 Nov 6.2 06:30:25 10° S 06:35:37 79° E 06:40:52 10° N visible
28 Nov 7.1 18:35:07 10° NNW 18:40:08 47° W 18:45:06 10° SSW visible
29 Nov 7.1 05:57:12 10° SSE 06:02:10 47° E 06:07:11 10° NNE visible
29 Nov 6.2 18:01:26 10° N 18:06:41 79° W 18:11:53 10° S visible
29 Nov 9.0 19:44:04 10° NW 19:46:31 13° WNW 19:48:58 10° W visible
30 Nov 8.0 05:24:25 10° SE 05:28:51 29° E 05:33:17 10° NNE visible
30 Nov 6.3 07:04:20 10° SSW 07:09:22 47° W 07:14:25 10° N visible
30 Nov 6.0 17:27:54 10° N 17:33:07 64° E 17:38:17 10° SSE visible
30 Nov 8.4 19:09:27 10° NNW 19:13:23 22° WNW 19:17:17 10° SW visible
01 Dec 8.7 04:52:12 10° ESE 04:55:38 18° ENE 04:59:05 10° NNE visible
01 Dec 5.9 06:30:30 10° S 06:35:43 78° W 06:40:59 10° N visible
01 Dec 7.7 18:35:24 10° NNW 18:40:07 35° W 18:44:49 10° SSW visible
02 Dec 9.2 04:21:18 10° E 04:22:33 11° ENE 04:23:47 10° NE visible
02 Dec 6.4 05:57:03 10° S 06:02:13 64° E 06:07:23 10° N visible
02 Dec 7.2 07:39:24 10° WSW 07:43:26 22° WNW 07:47:29 10° NNW visible
02 Dec 6.7 18:01:36 10° N 18:06:44 58° W 18:11:51 10° SSW visible
03 Dec 7.4 05:24:01 10° SSE 05:28:48 39° E 05:33:38 10° NNE visible
03 Dec 6.6 07:04:50 10° SW 07:09:35 35° WNW 07:14:23 10° N visible
03 Dec 6.0 17:27:58 10° N 17:33:15 86° E 17:38:29 10° S visible
03 Dec 8.9 19:10:05 10° NW 19:13:15 16° WNW 19:16:25 10° WSW visible
